AirNav   Jet Aviation Boston
 
 1640 users online  

L39 Leesville Airport
Leesville, Louisiana, USA

GOING TO LEESVILLE?


FAA INFORMATION EFFECTIVE 19 JULY 2018

Location

FAA Identifier: L39
Lat/Long: 31-10-05.5000N / 093-20-32.9000W
31-10.091667N / 093-20.548333W
31.1681944 / -93.3424722
(estimated)
Elevation: 281.5 ft. / 85.8 m (surveyed)
Variation: 02E (2010)
From city: 4 miles W of LEESVILLE, LA
Time zone: UTC -5 (UTC -6 during Standard Time)
Zip code: 71446

Airport Operations

Airport use: Open to the public
Control tower: no
ARTCC: HOUSTON CENTER
FSS: DE RIDDER FLIGHT SERVICE STATION
NOTAMs facility: DRI (NOTAM-D service available)
Attendance: CONTINUOUS
FUEL, RESTROOM & TERMINAL LOBBY AVAILABLE 24/7. MANAGER HOURS PART-TIME ON CALL.
Wind indicator: lighted
Segmented circle: no
Lights: DUSK-DAWN. MIRL RWY 18/36, REIL RYS 18 & 36 PRESET LOW INTST DUSK-DAWN; TO INCR INTST ACTVT - CTAF 122.8.
Beacon: white-green (lighted land airport)
Operates sunset to sunrise.

Airport Communications

CTAF/UNICOM: 122.8
POLK APPROACH: 123.7
POLK DEPARTURE: 123.7
WX ASOS at POE (11 nm SE): PHONE 337-531-4100

Nearby radio navigation aids

VOR radial/distance  VOR name  Freq  Var
FXUr296/(7.2)POLK VOR108.4002E

 
NDB name  Hdg/Dist  Freq  Var  ID
GATOR314/11.735902EGUV --. ..- ...-
DE RIDDER355/25.038504EDXB -.. -..- -...
NATCHITOCHES201/32.340704EOOC --- --- -.-.

Airport Services

Fuel available: 100LL JET-A
FUEL AVBL 24 HRS WITH CREDIT CARD.
Parking: hangars and tiedowns
Bottled oxygen: NONE
Bulk oxygen: NONE

Runway Information

Runway 18/36

Dimensions: 3807 x 75 ft. / 1160 x 23 m
Surface: asphalt, in fair condition
Weight bearing capacity: 
PCN 11 /F/C/X/T
Single wheel: 31.0
Double wheel: 47.0
Runway edge lights: medium intensity
RUNWAY 18  RUNWAY 36
Latitude: 31-10.405193N31-09.777230N
Longitude: 093-20.547113W093-20.548105W
Elevation: 281.0 ft.266.0 ft.
Gradient: 0.5%0.5%
Traffic pattern: leftleft
Runway heading: 178 magnetic, 180 true358 magnetic, 360 true
Markings: nonprecision, in fair conditionnonprecision, in fair condition
Visual slope indicator: 2-light PAPI on left (3.00 degrees glide path)2-light PAPI on left (3.00 degrees glide path)
Runway end identifier lights: yesyes
Touchdown point: yes, no lightsyes, no lights
Obstructions: 58 ft. trees, 872 ft. from runway48 ft. trees, 1526 ft. from runway, 288 ft. right of centerline, 27:1 slope to clear

Airport Ownership and Management from official FAA records

Ownership: Publicly-owned
Owner: CITY OF LEESVILLE
101 WEST LEE ST
LEESVILLE, LA 71446
Phone 337-239-2444
Manager: PAUL JACKSON
424 AIRPORT ROAD
LEESVILLE, LA 71446
Phone 337-238-5968

Airport Operational Statistics

Aircraft based on the field: 15
Single engine airplanes: 15
    
Aircraft operations: avg 41/day *
67% local general aviation
20% transient general aviation
13% military
* for 12-month period ending 21 September 2017

Additional Remarks

RWY 18/36 WEST SIDE 10-15 FT RISE 120 FT OFF CNTRLN SOUTH END.
RY 18/36 15 FT TERRAIN DROP EAST SIDE OF RY.
WILDLIFE ON & INVOF ARPT.
LOCKED WHEEL AND SHARP TURNS PROHIBITED ON ASPH SURFACES.
HOLD SHRT LNS NON-STD DSTC FM RWY.

Instrument Procedures

NOTE: All procedures below are presented as PDF files. If you need a reader for these files, you should download the free Adobe Reader.

NOT FOR NAVIGATION. Please procure official charts for flight.
FAA instrument procedures published for use from 19 July 2018 at 0901Z to 16 August 2018 at 0900Z.

 
IAPs - Instrument Approach Procedures
RNAV (GPS) RWY 18   download (216KB)
RNAV (GPS) RWY 36   download (213KB)
NOTE: Special Take-Off Minimums/Departure Procedures apply   download (116KB)

Other nearby airports with instrument procedures:

KPOE - Polk Army Airfield (11 nm SE)
KDRI - Beauregard Regional Airport (20 nm S)
3R4 - Hart Airport (24 nm N)
KIER - Natchitoches Regional Airport (36 nm N)
KJAS - Jasper County Airport-Bell Field (39 nm SW)
 
Loc | Ops | Rwys | IFR | FBO | Links
Com | Nav | Svcs | Stats | Notes


 
Area around L39 (Leesville Airport)
 
Road maps at: MapQuest Bing Google
 
Aerial photo
WARNING: Photo may not be current or correct
Aerial photo of L39 (Leesville Airport)
Photo by Paul Jackson
Photo taken 19-Jul-2017
looking southwest.

Do you have a better or more recent aerial photo of Leesville Airport that you would like to share? If so, please send us your photo.

 
Sectional chart

 
Airport distance calculator
Flying to Leesville Airport? Find the distance to fly.

From to L39

Sunrise and sunset
Times for 19-Jul-2018
 Local
(UTC-5)
 Zulu
(UTC)
Morning civil twilight05:5610:56
Sunrise06:2311:23
Sunset20:1601:16
Evening civil twilight20:4301:43

Current date and time
Zulu (UTC)  19-Jul-2018 18:13:44
Local (UTC-5)  19-Jul-2018 13:13:44
 
METAR
KPOE 
18nm E 
191758Z AUTO 33006KT 10SM CLR 32/22 A2993 RMK AO2 SLP133 T03220223 10323 20256 58009
KDRI 
20nm S 
191755Z AUTO 24008KT 10SM CLR 32/20 A2997 RMK AO2 T03230200 10325 20256
KBKB 
24nm E 
191554Z AUTO VRB04KT 10SM CLR 31/23 A2994 RMK AO2 SLP164 T03060228
KAQV 
30nm N 
191756Z AUTO VRB04KT 10SM CLR 33/22 A2993 RMK AO2 SLP131 T03330222 10333 20256 58008
KIER 
36nm N 
191755Z AUTO 20006KT 10SM CLR 35/24 A2992 RMK AO2 T03510236 10352 20250
TAF
KPOE 
18nm E 
191600Z 1916/2022 31006KT 9999 FEW080 QNH2988INS BECMG 2008/2009 22006KT 4800 BR SCT004 QNH2989INS BECMG 2014/2015 23006KT 9999 NSW SCT080 QNH2993INS TX35/1920Z TN24/2011Z
NOTAMs
Click for the latest NOTAMs
NOTAMs are issued by the DoD/FAA and will open in a separate window not controlled by AirNav.

 

 
 

FBO, Fuel Providers, and Aircraft Ground Support

  
 Business Name 
 
 Contact 
 
 Services / Description 
 
Fuel Prices
 
Comments
  
Leesville City Airport 337-238-5968
337-208-2219
[email]
Airport management, Aviation fuel, Aircraft parking (ramp or tiedown), Hangar leasing / sales, Passenger terminal and lounge, Organization with aviation interests, ...

More info about Leesville City Airport
Shell
100LL Jet A
SS $3.99 $3.89 
 Updated 08-Jul-2018
 
   1 read write
SS=Self service
Update Fuel Prices
 

Would you like to see your business listed on this page?

 If your business provides an interesting product or service to pilots, flight crews, aircraft, or users of the Leesville Airport, you should consider listing it here.  To start the listing process, click on the button below
 
Add a business
 

Other Pages about Leesville Airport

Update a link
 
Copyright © AirNav, LLC. All rights reserved. Privacy Policy  Contact